This is the latest recevied weather packets stored in our database for station/object WA6OOO. If no packets are shown the sender has not sent any weather packets the latest 10 day(s).
| Time | Temp. | Humidity | Pressure | Rain* | Wind** | Luminosity | Snow |
|---|---|---|---|---|---|---|---|
| 1778078003 | 14.44° C | 73% | 1021.1 hPa | 0 mm | - | 146 W/m² | - |
| 1778077702 | 14.44° C | 73% | 1021.4 hPa | 0 mm | - | 133 W/m² | - |
| 1778077399 | 14.44° C | 74% | 1021.1 hPa | 0 mm | - | 119 W/m² | - |
| 1778077098 | 13.89° C | 75% | 1021.1 hPa | 0 mm | - | 108 W/m² | - |
| 1778076795 | 13.33° C | 77% | 1021.3 hPa | 0 mm | - | 97 W/m² | - |
| 1778076493 | 13.33° C | 78% | 1020.9 hPa | 0 mm | - | 85 W/m² | - |
| 1778076189 | 12.78° C | 79% | 1021 hPa | 0 mm | - | 76 W/m² | - |
| 1778075887 | 12.78° C | 78% | 1021.1 hPa | 0 mm | - | 66 W/m² | - |
| 1778075583 | 12.22° C | 81% | 1021 hPa | 0 mm | - | 57 W/m² | - |
| 1778075280 | 12.22° C | 80% | 1021 hPa | 0 mm | - | 48 W/m² | - |
| 1778074976 | 12.78° C | 81% | 1021.1 hPa | 0 mm | - | 26 W/m² | - |
| 1778074673 | 12.22° C | 82% | 1021 hPa | 0 mm | - | 23 W/m² | - |
| 1778074370 | 12.22° C | 82% | 1021 hPa | 0 mm | - | 20 W/m² | - |
| 1778074067 | 12.22° C | 82% | 1021 hPa | 0 mm | - | 17 W/m² | - |
| 1778073764 | 11.67° C | 83% | 1021 hPa | 0 mm | - | 14 W/m² | - |
| 1778073462 | 11.67° C | 84% | 1020.9 hPa | 0 mm | - | 10 W/m² | - |
| 1778073158 | 11.67° C | 85% | 1020.8 hPa | 0 mm | - | 7 W/m² | - |
| 1778072854 | 11.67° C | 85% | 1020.7 hPa | 0 mm | - | 5 W/m² | - |
| 1778072551 | 11.67° C | 84% | 1020.7 hPa | 0 mm | - | 3 W/m² | - |
| 1778072250 | 12.22° C | 83% | 1020.6 hPa | 0 mm | - | 2 W/m² | - |
| 1778071947 | 12.22° C | 82% | 1020.5 hPa | 0 mm | - | 1 W/m² | - |
| 1778071645 | 12.22° C | 83% | 1020.6 hPa | 0 mm | - | 0 W/m² | - |
| 1778071343 | 12.22° C | 84% | 1020.5 hPa | 0 mm | - | 0 W/m² | - |
| 1778071040 | 12.22° C | 83% | 1020.5 hPa | 0 mm | - | 0 W/m² | - |
| 1778070739 | 12.78° C | 83% | 1020.6 hPa | 0 mm | - | 0 W/m² | - |
* Rain latest hour (hover to see other rain measurements)
** Current wind speed in m/s (hover to see current wind gust speed)